This demonstration page uses our WeatherBlox Daily Observations layout. Learn more.

Left ArrowRight Arrow

36.19886, -115.1175

Hourly Observations for April 15, 2021

Temp ( °F °C ) Dew Point ( °F °C ) Humidity (%) Winds ( mph kmh ) Pressure ( in mb ) Visibility ( mi km ) Precip ( " mm )
12:53 am 00:53 Clear 63 17.2 23 -5 22 22 NW 21 33 29.77 1008 10 16 N/A
1:53 am 01:53 Clear 62 16.7 24 -4.4 23 23 NW 18 30 29.78 1009 10 16 N/A
2:53 am 02:53 Clear 61 16.1 26 -3.3 26 26 NW 17 28 29.78 1009 10 16 N/A
3:53 am 03:53 Clear 60 15.6 26 -3.3 27 27 WNW 12 19 29.81 1009 10 16 N/A
4:53 am 04:53 Clear 59 15 27 -2.8 29 29 NW 12 19 29.82 1010 10 16 N/A
5:53 am 05:53 Clear 57 13.9 28 -2.2 33 33 NNW 17 28 29.83 1010 10 16 N/A
6:53 am 06:53 Sunny 59 15 27 -2.8 29 29 NW 20 31 29.86 1011 10 16 N/A
7:53 am 07:53 Sunny 61 16.1 28 -2.2 29 29 NNW 16 26 29.89 1012 10 16 N/A
8:53 am 08:53 Sunny 63 17.2 27 -2.8 26 26 NW 16 26 29.89 1012 10 16 N/A
9:53 am 09:53 Sunny 66 18.9 27 -2.8 23 23 NNW 16 26 29.90 1012 10 16 N/A
10:53 am 10:53 Sunny 68 20 22 -5.6 17 17 NNW 15 24 29.90 1013 10 16 N/A
11:53 am 11:53 Sunny 69 20.6 21 -6.1 16 16 NE 9 15 29.91 1013 10 16 N/A
12:53 pm 12:53 Sunny 72 22.2 13 -10.6 10 10 NW 15 24 29.88 1012 10 16 N/A
1:53 pm 13:53 Sunny 72 22.2 16 -8.9 12 12 W 8 13 29.88 1012 10 16 N/A
2:53 pm 14:53 Sunny 74 23.3 16 -8.9 11 11 NW 12 19 29.85 1011 10 16 N/A
3:53 pm 15:53 Sunny 74 23.3 14 -10 10 10 WNW 8 13 29.83 1010 10 16 N/A
4:53 pm 16:53 Sunny 75 23.9 13 -10.6 9 9 NW 12 19 29.82 1010 10 16 N/A
5:53 pm 17:53 Sunny 75 23.9 12 -11.1 9 9 NNW 15 24 29.82 1010 10 16 N/A
6:53 pm 18:53 Sunny 74 23.3 11 -11.7 9 9 NNW 9 15 29.83 1010 10 16 N/A
7:53 pm 19:53 Clear 71 21.7 13 -10.6 10 10 NW 3 6 29.84 1011 10 16 N/A
8:53 pm 20:53 Clear 69 20.6 16 -8.9 13 13 N 5 7 29.86 1011 10 16 N/A
9:53 pm 21:53 Clear 68 20 17 -8.3 14 14 NNE 7 11 29.87 1012 10 16 N/A
10:53 pm 22:53 Clear 65 18.3 17 -8.3 16 16 NNW 5 7 29.90 1012 10 16 N/A
11:53 pm 23:53 Clear 63 17.2 17 -8.3 17 17 N 5 7 29.91 1013 10 16 N/A

Powered by AerisWeather